Find Starlink 32276

NORAD ID: 60944 Int'l Des: 2024-155 Owner: SPXS Country: US Constellation: starlink operational
LEOCIRCULAR

Current View

Loading 3D Globe...

About Starlink 32276

Starlink 32276 (NORAD 60944) is a starlink constellation satellite (v2 mini) launched Aug 31, 2024 by SPXS of US. It operates in LEO, CIRCULAR orbit with a mass of 730.00 kg.

Upcoming Passes

Passes for default location (London). Set your location on the main map for personalized predictions.

Altitude History

Loading altitude history...

Two-Line Element Set

1 60944U 24155W 26257.61094677 .00000018 00000-0 11657-4 0 9995
2 60944 53.1589 329.4464 0001264 83.6682 276.4464 15.34394026115359
Epoch: Sep 14, 2026 • Age: 19 hours

Current Status

Altitude 466.4 km
Apogee / Perigee N/A
Velocity 7.64 km/s
Sub-Earth Point 44.06°N, 127.72°W
Launch Date Aug 31, 2024
Age 2 years
Type internet

Technical Details

Classification Payload
Mass 730.00 kg
Dry Mass 700.00 kg
Length 0.30 m
Span 29.00 m
Shape ? Box + pan
Manufacturer SPXS
Bus Type Starlink V2M
Phase Status In Orbit
Owner/State SPXS/US

Most Searched